Regional Weather Roundup
Issued by NWS

Home | Current Version | Previous Version | Graphics & Text | Print | Product List | Glossary On
Versions: 1 2 3 4 5 6 7 8 9 10 11 12 13 14 15 16 17 18 19 20 21 22 23 24 25 26 27 28 29 30 31 32 33 34 35 36 37 38 39 40 41 42 43 44 45 46 47 48 49 50
000
ASUS45 KPSR 062110
RWRAZ

ARIZONA REGIONAL HOURLY WEATHER ROUNDUP
NATIONAL WEATHER SERVICE PHOENIX AZ
200 PM MST WED MAY 06 2015

NOTE: FAIR INDICATES FEW OR NO CLOUDS BELOW 12,000 FEET WITH NO
SIGNIFICANT WEATHER AND/OR OBSTRUCTIONS TO VISIBILITY.

AZZ001>003-036-062200-
NORTHWEST ARIZONA

CITY           SKY/WX    TMP DP  RH WIND       PRES   REMARKS
BULLHEAD CITY  MOSUNNY   84  39  20 S13       29.67F
KINGMAN        MOSUNNY   76  32  20 SW23G29   29.78F
$$

AZZ004>008-015-016-018-062200-
NORTH CENTRAL ARIZONA

CITY           SKY/WX    TMP DP  RH WIND       PRES   REMARKS
GRAND CANYON   PTSUNNY   61  30  31 SW18G26   29.90F
WILLIAMS       SUNNY     57  25  28 S13G21    30.00F
PRESCOTT       MOSUNNY   66  29  24 SW13G20   29.88F
FLAGSTAFF      MOSUNNY   57  32  38 SW16G30   29.94F
PAYSON         MOSUNNY   66  36  32 S10G22    29.92F
PAGE           SUNNY     75  22  13 SW8       29.75F
$$

AZZ009>014-017-062200-
NORTHEAST ARIZONA

CITY           SKY/WX    TMP DP  RH WIND       PRES   REMARKS
WINSLOW        MOSUNNY   73  31  21 SW18G29   29.85S
SAINT JOHNS    CLOUDY    69  28  21 SW17G29   29.89F
WINDOW ROCK    CLOUDY    61  35  37 SW15      29.93F
SHOW LOW       PTSUNNY   59  32  36 SW17G23   29.96F
$$

AZZ023-062200-
GREATER PHOENIX AREA

CITY           SKY/WX    TMP DP  RH WIND       PRES   REMARKS
PHOENIX        PTSUNNY   86  31  13 VRB6G17   29.72F
GLENDALE       MOSUNNY   86  34  15 E8        29.73F
LUKE AFB       SUNNY     85  36  17 VRB7      29.71F
DEER VALLEY    SUNNY     83  27  13 S13G22    29.73F
SCOTTSDALE     MOSUNNY   83  27  13 S10       29.75F
MESA-FALCON    PTSUNNY   82  30  15 SW9       29.74F
MESA-GATEWAY   PTSUNNY   82  34  17 VRB6      29.76F
CHANDLER       MOSUNNY   84  32  15 W6        29.73F
$$

AZZ027-028-062200-
SOUTHWEST MARICOPA COUNTY AND PINAL COUNTY

CITY           SKY/WX    TMP DP  RH WIND       PRES   REMARKS
CASA GRANDE    SUNNY     88  32  13 S12G23    29.71F
GILA BEND      SUNNY     88  35  15 SW14G26   29.69F
$$

AZZ503-504-507>509-062200-
SOUTHEAST ARIZONA

CITY           SKY/WX    TMP DP  RH WIND       PRES   REMARKS
TUCSON         SUNNY     86  17   8 SW15G25   29.80F
DAVIS-MONTHAN  SUNNY     84  20   9 SW13G26   29.78F
RYAN FIELD       N/A     86  27  11 MISG      29.78F
NOGALES        SUNNY     79  22  12 S18G26    29.87F
SIERRA VISTA   SUNNY     77  11   8 SW15G31   29.90F
DOUGLAS        SUNNY     80  15   8 SW17G26   29.87F
SAFFORD        SUNNY     84  30  14 W8        29.78F
$$

AZZ020-021-025-026-031-062200-
SOUTHWEST ARIZONA

CITY           SKY/WX    TMP DP  RH WIND       PRES   REMARKS
YUMA           MOSUNNY   83  47  28 S15G22    29.71F
$$

CAZ031-033-041-043-047-048-061-062200-
SOUTHERN CALIFORNIA

CITY           SKY/WX    TMP DP  RH WIND       PRES   REMARKS
DOWNTOWN L.A.  PTSUNNY   67  51  56 CALM      29.86F
L.A. AIRPORT   PTSUNNY   62  50  64 W14       29.88F
SAN DIEGO      PTSUNNY   66  52  60 W12       29.90F
BURBANK        CLOUDY    64  47  53 SE8       29.85F
ONTARIO        CLOUDY    66  44  45 W9        29.86F
RIVERSIDE      CLOUDY    67  44  43 W10       29.86F
PALM SPRINGS   SUNNY     80  39  23 NW17G26   29.73F
EL CENTRO NAS  MOSUNNY   83  42  23 E8        29.72F
IMPERIAL       SUNNY     82  42  24 VRB7      29.70F
BLYTHE         SUNNY     85  47  26 S18       29.70F
NEEDLES        SUNNY     86  39  19 S17G28    29.68F
$$

NVZ020-UTZ003-062200-
SOUTHERN NEVADA-UTAH

CITY           SKY/WX    TMP DP  RH WIND       PRES   REMARKS
LAS VEGAS      PTSUNNY   85  20   9 S14G31    29.61F
SALT LAKE CITY LGT RAIN  54  49  83 E10       29.76S
$$

NMZ009-TXZ055-062200-
NEW MEXICO-WEST TEXAS

CITY           SKY/WX    TMP DP  RH WIND       PRES   REMARKS
ALBUQUERQUE    PTSUNNY   70  36  28 SW9       29.88F
EL PASO        MOSUNNY   81  29  15 S12       29.85F
$$


........................KEY........................
SKY/WX - SKY CONDITION/WEATHER
TMP    - TEMPERATURE IN FAHRENHEIT
DP     - DEW POINT IN FAHRENHEIT
RH     - RELATIVE HUMIDITY IN PERCENT
WIND   - DIRECTION AND SPEED IN MILES PER HOUR (MPH)
VRB    - VARIABLE WIND DIRECTION
PRES   - MEAN SEA LEVEL PRESSURE IN INCHES OF MERCURY
         F - FALLING PRESSURE   R - RISING PRESSURE
         S - STEADY PRESSURE
VSB    - VISIBILITY IN MILES
HX     - HEAT INDEX IN FAHRENHEIT
WCI    - WIND CHILL INDEX IN FAHRENHEIT
TC     - TEMPERATURE IN CELSIUS WHICH IS ALSO KNOWN AS
         TEMPERATURE IN CENTIGRADE
AFB    - AIR FORCE BASE
         LUKE AFB IS LUKE AIR FORCE BASE
         DAVIS-MONTHAN IS DAVIS-MONTHAN AIR FORCE BASE
NAS    - NAVAL AIR STATION
         EL CENTRO NAS IS EL CENTRO NAVAL AIR STATION
N/A    - NOT AVAILABLE



USA.gov is the U.S. government's official web portal to all federal, state and local government web resources and services.